When you browse on this site, cookies collect data to enhance your experience and personalize the content and advertising you see.
Visit our Privacy Policy to learn more. By continuing to use the site, you agree to this use of cookies and data.
  • In Latvia
  • List of Countries
  • For 7 days
  • Water Temperature
  • Satellite Maps
  • Weather Map
  • Weather Widgets
  • user-avatar
    Login

    Hourly Weather Trypolis

    Today, 26 March, Tuesday

    Time Temperature Precipitation Wind Pressure Humidity
    00:00 +17°C° 0 mm 4 mps 762 mmHg 42%
    01:00 +17°C° 0 mm 4 mps 761 mmHg 41%
    02:00 +17°C° 0 mm 4 mps 761 mmHg 40%
    03:00 +16°C° 0 mm 5 mps 761 mmHg 40%
    04:00 +16°C° 0 mm 5 mps 761 mmHg 40%
    05:00 +16°C° 0 mm 5 mps 761 mmHg 41%
    06:00 +16°C° 0 mm 5 mps 761 mmHg 42%
    07:00 +16°C° 0 mm 5 mps 761 mmHg 42%
    08:00 +19°C° 0 mm 6 mps 761 mmHg 39%
    09:00 +20°C° 0 mm 6 mps 761 mmHg 36%
    10:00 +22°C° 0 mm 6 mps 761 mmHg 32%
    11:00 +23°C° 0 mm 6 mps 761 mmHg 31%
    12:00 +25°C° 0 mm 5 mps 761 mmHg 30%
    13:00 +25°C° 0 mm 5 mps 761 mmHg 28%
    14:00 +25°C° 0 mm 4 mps 761 mmHg 29%
    15:00 +25°C° 0 mm 3 mps 760 mmHg 30%
    16:00 +25°C° 0 mm 3 mps 760 mmHg 31%
    17:00 +24°C° 0 mm 3 mps 760 mmHg 36%
    18:00 +22°C° 0 mm 4 mps 760 mmHg 41%
    19:00 +21°C° 0 mm 4 mps 760 mmHg 46%
    20:00 +21°C° 0 mm 5 mps 760 mmHg 45%
    21:00 +21°C° 0 mm 5 mps 761 mmHg 44%
    22:00 +21°C° 0 mm 6 mps 761 mmHg 43%
    23:00 +21°C° 0 mm 6 mps 761 mmHg 40%

    Tomorrow, 27 March, Wednesday

    Time Temperature Precipitation Wind Pressure Humidity
    00:00 +22°C° 0 mm 6 mps 761 mmHg 36%
    01:00 +22°C° 0 mm 7 mps 761 mmHg 33%
    02:00 +21°C° 0 mm 5 mps 760 mmHg 35%
    03:00 +20°C° 0 mm 4 mps 760 mmHg 38%
    04:00 +20°C° 0 mm 2 mps 760 mmHg 40%
    05:00 +20°C° 0 mm 3 mps 760 mmHg 40%
    06:00 +20°C° 0 mm 3 mps 760 mmHg 40%
    07:00 +20°C° 0 mm 3 mps 760 mmHg 40%
    08:00 +21°C° 0 mm 4 mps 760 mmHg 38%
    09:00 +22°C° 0 mm 5 mps 760 mmHg 36%
    10:00 +24°C° 0 mm 6 mps 760 mmHg 33%
    11:00 +22°C° 0.1 mm 7 mps 760 mmHg 48%
    12:00 +18°C° 0.1 mm 9 mps 760 mmHg 63%
    13:00 +16°C° 0.1 mm 11 mps 760 mmHg 79%
    14:00 +16°C° 0 mm 10 mps 760 mmHg 77%
    15:00 +16°C° 0 mm 9 mps 760 mmHg 76%
    16:00 +16°C° 0 mm 8 mps 760 mmHg 75%
    17:00 +16°C° 0 mm 8 mps 760 mmHg 76%
    18:00 +15°C° 0 mm 7 mps 761 mmHg 77%
    19:00 +15°C° 0 mm 6 mps 761 mmHg 78%
    20:00 +14°C° 0 mm 5 mps 762 mmHg 78%
    21:00 +14°C° 0 mm 5 mps 762 mmHg 78%
    22:00 +14°C° 0 mm 4 mps 762 mmHg 77%
    23:00 +14°C° 0 mm 4 mps 762 mmHg 76%

    Day after tomorrow, 28 March, Thursday

    Time Temperature Precipitation Wind Pressure Humidity
    00:00 +14°C° 0 mm 5 mps 762 mmHg 76%
    01:00 +14°C° 0 mm 5 mps 762 mmHg 75%
    02:00 +14°C° 0 mm 5 mps 762 mmHg 75%
    03:00 +14°C° 0 mm 6 mps 762 mmHg 76%
    04:00 +14°C° 0 mm 6 mps 761 mmHg 76%
    05:00 +14°C° 0 mm 6 mps 762 mmHg 76%
    06:00 +14°C° 0 mm 6 mps 762 mmHg 76%
    07:00 +14°C° 0 mm 6 mps 762 mmHg 76%
    08:00 +15°C° 0.1 mm 5 mps 762 mmHg 71%
    09:00 +16°C° 0.1 mm 5 mps 763 mmHg 66%
    10:00 +17°C° 0.1 mm 5 mps 763 mmHg 61%
    11:00 +17°C° 0 mm 5 mps 763 mmHg 59%
    12:00 +19°C° 0 mm 6 mps 763 mmHg 57%
    13:00 +19°C° 0 mm 6 mps 763 mmHg 55%
    14:00 +19°C° 0 mm 6 mps 763 mmHg 56%
    15:00 +19°C° 0 mm 6 mps 763 mmHg 57%
    16:00 +17°C° 0 mm 6 mps 763 mmHg 59%
    17:00 +17°C° 0 mm 5 mps 763 mmHg 62%
    18:00 +16°C° 0 mm 5 mps 763 mmHg 66%
    19:00 +15°C° 0 mm 5 mps 764 mmHg 70%
    20:00 +15°C° 0 mm 5 mps 764 mmHg 70%
    21:00 +15°C° 0 mm 5 mps 765 mmHg 70%
    22:00 +15°C° 0 mm 5 mps 766 mmHg 71%
    23:00 +15°C° 0 mm 4 mps 765 mmHg 71%

    29 March, Friday

    Time Temperature Precipitation Wind Pressure Humidity
    00:00 +14°C° 0 mm 4 mps 765 mmHg 72%
    01:00 +14°C° 0 mm 4 mps 765 mmHg 72%
    02:00 +14°C° 0 mm 4 mps 765 mmHg 73%
    03:00 +14°C° 0 mm 4 mps 765 mmHg 74%
    04:00 +14°C° 0 mm 4 mps 765 mmHg 75%
    05:00 +14°C° 0 mm 5 mps 765 mmHg 75%
    06:00 +14°C° 0 mm 5 mps 766 mmHg 74%
    07:00 +14°C° 0 mm 5 mps 766 mmHg 74%
    08:00 +15°C° 0.1 mm 6 mps 766 mmHg 69%
    09:00 +16°C° 0.1 mm 6 mps 767 mmHg 65%
    10:00 +17°C° 0.1 mm 6 mps 767 mmHg 60%
    11:00 +17°C° 0.1 mm 6 mps 767 mmHg 58%
    12:00 +19°C° 0.1 mm 6 mps 767 mmHg 57%
    13:00 +19°C° 0.1 mm 6 mps 767 mmHg 55%
    14:00 +19°C° 0 mm 6 mps 767 mmHg 56%
    15:00 +19°C° 0 mm 6 mps 767 mmHg 57%
    16:00 +17°C° 0 mm 6 mps 766 mmHg 58%
    17:00 +17°C° 0 mm 6 mps 767 mmHg 61%
    18:00 +16°C° 0 mm 5 mps 767 mmHg 64%
    19:00 +15°C° 0 mm 5 mps 767 mmHg 67%
    20:00 +15°C° 0 mm 5 mps 768 mmHg 68%
    21:00 +15°C° 0 mm 4 mps 768 mmHg 68%
    22:00 +15°C° 0 mm 4 mps 769 mmHg 69%
    23:00 +14°C° 0 mm 4 mps 769 mmHg 70%

    30 March, Saturday

    Time Temperature Precipitation Wind Pressure Humidity
    00:00 +14°C° 0 mm 4 mps 768 mmHg 71%
    01:00 +14°C° 0 mm 3 mps 768 mmHg 72%
    02:00 +14°C° 0 mm 3 mps 768 mmHg 72%
    03:00 +13°C° 0 mm 3 mps 768 mmHg 73%
    04:00 +13°C° 0 mm 3 mps 768 mmHg 74%
    05:00 +14°C° 0 mm 2 mps 768 mmHg 73%
    06:00 +14°C° 0 mm 2 mps 768 mmHg 71%
    07:00 +15°C° 0 mm 1 mps 768 mmHg 70%
    08:00 +15°C° 0 mm 1 mps 768 mmHg 65%
    09:00 +16°C° 0 mm 1 mps 768 mmHg 60%
    10:00 +18°C° 0 mm 1 mps 768 mmHg 54%
    11:00 +19°C° 0 mm 1 mps 768 mmHg 50%
    12:00 +18°C° 0 mm 2 mps 767 mmHg 46%
    13:00 +19°C° 0 mm 3 mps 767 mmHg 42%
    14:00 +19°C° 0 mm 3 mps 767 mmHg 44%
    15:00 +19°C° 0 mm 4 mps 766 mmHg 45%
    16:00 +19°C° 0 mm 4 mps 766 mmHg 47%
    17:00 +18°C° 0 mm 4 mps 766 mmHg 50%
    18:00 +17°C° 0 mm 4 mps 766 mmHg 53%
    19:00 +15°C° 0 mm 4 mps 766 mmHg 56%
    20:00 +16°C° 0 mm 3 mps 766 mmHg 58%
    21:00 +16°C° 0 mm 3 mps 766 mmHg 60%
    22:00 +16°C° 0 mm 2 mps 766 mmHg 62%
    23:00 +15°C° 0 mm 2 mps 766 mmHg 63%

    31 March, Sunday

    Time Temperature Precipitation Wind Pressure Humidity
    00:00 +15°C° 0 mm 2 mps 766 mmHg 64%
    01:00 +15°C° 0 mm 2 mps 765 mmHg 65%
    02:00 +14°C° 0 mm 2 mps 765 mmHg 66%
    03:00 +14°C° 0 mm 2 mps 765 mmHg 67%
    04:00 +14°C° 0 mm 2 mps 764 mmHg 68%
    05:00 +14°C° 0 mm 2 mps 764 mmHg 67%
    06:00 +14°C° 0 mm 2 mps 764 mmHg 66%
    07:00 +14°C° 0 mm 2 mps 764 mmHg 65%
    08:00 +16°C° 0 mm 2 mps 764 mmHg 57%
    09:00 +17°C° 0 mm 2 mps 764 mmHg 49%
    10:00 +18°C° 0 mm 2 mps 764 mmHg 40%
    11:00 +19°C° 0 mm 2 mps 763 mmHg 36%
    12:00 +20°C° 0 mm 2 mps 763 mmHg 31%
    13:00 +21°C° 0 mm 3 mps 763 mmHg 27%
    14:00 +20°C° 0 mm 4 mps 762 mmHg 30%
    15:00 +20°C° 0 mm 4 mps 762 mmHg 33%
    16:00 +20°C° 0 mm 5 mps 761 mmHg 36%
    17:00 +19°C° 0 mm 5 mps 761 mmHg 44%
    18:00 +17°C° 0 mm 5 mps 761 mmHg 52%
    19:00 +16°C° 0 mm 5 mps 761 mmHg 61%
    20:00 +16°C° 0 mm 5 mps 761 mmHg 61%
    21:00 +16°C° 0 mm 6 mps 761 mmHg 61%
    22:00 +16°C° 0 mm 6 mps 761 mmHg 61%
    23:00 +16°C° 0 mm 6 mps 761 mmHg 60%
    Show more